Flag for U.S.A. Weather past 2 weeks in Ocala, Florida, U.S.A.

Now
73 °F

Light rain. Fog.


Feels Like: 70 °F
Forecast: 72 / 79 °F
Wind: 9 mph from Southwest

Location: Ocala Municipal

Current Time: Aug 1, 2015 at 3:04:13 PM

Latest Report: Aug 1, 2015 at 1:50 PM


Visibility: 3 mi

Pressure: 29.97 "Hg

Humidity: 94%

Dew point: 72 °F

Location of OcalaLocation

Historic Weather in Ocala — Graph

°F

Ocala temperature yesterday

Maximum temperature yesterday: 88 °F (at 1:50 PM)
Minimum temperature yesterday: 73 °F (at 4:15 AM)
Average temperature yesterday: 77 °F

Past Weeks' High & Low Weather Summary

 TemperatureHumidityPressure
High93 °F (Jul 29, 12:50 PM)100% (Jul 21, 4:35 AM)30.05 "Hg (Jul 21, 4:35 AM)
Low72 °F (Jul 30, 4:55 AM)53% (Jul 29, 2:50 PM)29.85 "Hg (Jul 26, 3:55 AM)
Average78 °F88%29.96 "Hg
* Reported Jul 17 1:15 PM — Aug 1 1:50 PM, Ocala, Weather by CustomWeather, © 2015

Note: Actual official high and low records may vary slightly from our data, if they occured in-between our weather recording intervals... More about our weather records

Advertising

Ocala weather history for previous 24 hours

 ConditionsComfort  
Time TempWeatherWind HumidityBarometerVisibility
1:50 PM
Sat, Aug 1
73 °FLight rain. Fog.9 mph94%29.97 "Hg3 mi
12:50 PM75 °FScattered clouds.9 mph94%29.96 "Hg8 mi
11:50 AM75 °FLight rain. Fog.7 mph94%29.97 "Hg4 mi
10:50 AM75 °FRain. Fog.14 mph94%29.96 "Hg1 mi
9:50 AM77 °FBroken clouds.7 mph89%29.95 "Hg8 mi
8:50 AM73 °FBroken clouds.7 mph100%29.95 "Hg8 mi
7:50 AM73 °FFog.9 mph94%29.94 "Hg5 mi
7:00 AM73 °FLight rain. Fog.7 mph94%29.95 "Hg5 mi
6:50 AM73 °FLight rain. Partly cloudy.6 mph94%29.94 "Hg7 mi
6:35 AM73 °FPartly cloudy.8 mph94%29.94 "Hg10 mi
6:15 AM73 °FPartly cloudy.9 mph94%29.94 "Hg6 mi
5:55 AM73 °FOvercast.14 mph94%29.94 "Hg5 mi
5:35 AM73 °FOvercast.7 mph100%29.93 "Hg9 mi
5:15 AM73 °FOvercast.6 mph100%29.93 "Hg10 mi
4:55 AM75 °FMostly cloudy.No wind94%29.93 "Hg10 mi
4:35 AM75 °FMostly cloudy.6 mph94%29.94 "Hg10 mi
4:15 AM75 °FMostly cloudy.5 mph94%29.94 "Hg10 mi
3:55 AM75 °FPartly cloudy.6 mph94%29.94 "Hg10 mi
3:35 AM75 °FPassing clouds.6 mph94%29.94 "Hg10 mi
3:15 AM73 °FPassing clouds.6 mph100%29.94 "Hg10 mi
2:55 AM73 °FPassing clouds.6 mph100%29.94 "Hg10 mi
2:35 AM75 °FPassing clouds.6 mph94%29.95 "Hg10 mi
2:15 AM75 °FPassing clouds.6 mph94%29.96 "Hg10 mi
1:55 AM75 °FPassing clouds.5 mph94%29.96 "Hg8 mi
1:35 AM75 °FPassing clouds.5 mph94%29.97 "Hg4 mi
1:15 AM75 °FOvercast.6 mph94%29.98 "Hg8 mi
12:55 AM75 °FMostly cloudy.6 mph94%29.99 "Hg9 mi
12:35 AM75 °FPartly cloudy.8 mph94%29.98 "Hg8 mi
11:55 PM
Fri, Jul 31
75 °FPassing clouds.6 mph94%29.98 "Hg10 mi
11:35 PM75 °FMostly cloudy.6 mph94%29.99 "Hg6 mi
10:55 PM77 °FPartly cloudy.No wind89%29.99 "Hg10 mi
10:35 PM77 °FPartly cloudy.5 mph89%29.99 "Hg10 mi
10:15 PM77 °FPassing clouds.8 mph89%29.98 "Hg10 mi
9:55 PM77 °FPassing clouds.7 mph89%29.97 "Hg10 mi
9:35 PM77 °FClear.8 mph89%29.96 "Hg10 mi
9:15 PM77 °FPassing clouds.9 mph89%29.96 "Hg10 mi
8:55 PM79 °FPassing clouds.3 mph84%29.95 "Hg10 mi
8:35 PM79 °FPassing clouds.7 mph84%29.95 "Hg10 mi
8:15 PM79 °FPartly sunny.10 mph84%29.95 "Hg10 mi
7:55 PM81 °FScattered clouds.9 mph79%29.94 "Hg10 mi
6:50 PM81 °FScattered clouds.9 mph79%29.92 "Hg10 mi
5:50 PM81 °FBroken clouds.9 mph79%29.94 "Hg10 mi
4:50 PM82 °FBroken clouds.10 mph74%29.95 "Hg10 mi
3:50 PM82 °FBroken clouds.18 mph74%29.95 "Hg10 mi
Weather by CustomWeather, © 2015

See weather overviewHow to use our weather pages